Location: Bari
(41.1330°N, 16.8500°E)
Time: 02:25:53
(UTC+02:00)

ISS - Pass Details

Date: 19 May 2021
Orbit: 417 x 422 km, 51.6° (Epoch: 14 June)

Event Time Altitude Azimuth Distance (km) Brightness Sun altitude
Rises 23:44:06 0° 306° (NW) 2,368 0.8 -27.1°
Reaches altitude 10° 23:46:55 10° 331° (NNW) 1,505 0.0 -27.2°
Maximum altitude 23:48:55 15° 8° (N) 1,247 -0.6 -27.3°
Enters shadow 23:50:24 12° 36° (NE) 1,393 -0.7 -27.4°
